Time,TemperatureF,DewpointF,PressureIn,WindDirection,WindDirectionDegrees,WindSpeedMPH,WindSpeedGustMPH,Humidity,HourlyPrecipIn,Conditions,Clouds,dailyrainin,SoftwareType,DateUTC
2013-04-20 00:00:00,39.6,31.6,30.24,ESE,114,0.0,0.0,73,0.00,,SCT,0.00,VWS V14.01,2013-04-20 07:00:00,
2013-04-20 00:03:00,39.6,31.6,30.24,ESE,114,0.0,0.0,73,0.00,,SCT,0.00,VWS V14.01,2013-04-20 07:03:00,
2013-04-20 00:07:00,39.7,31.8,30.24,ENE,76,0.0,3.1,73,0.00,,SCT,0.00,VWS V14.01,2013-04-20 07:07:00,
2013-04-20 00:13:00,39.4,31.5,30.24,East,88,0.0,3.1,73,0.00,,SCT,0.00,VWS V14.01,2013-04-20 07:13:00,
2013-04-20 00:15:00,39.2,31.6,30.24,East,100,0.0,3.1,74,0.00,,SCT,0.00,VWS V14.01,2013-04-20 07:15:00,
2013-04-20 00:18:00,39.0,31.8,30.24,East,92,0.0,0.0,75,0.00,,SCT,0.00,VWS V14.01,2013-04-20 07:18:00,
2013-04-20 00:23:00,38.8,31.9,30.24,ENE,77,0.0,3.6,76,0.00,,SCT,0.00,VWS V14.01,2013-04-20 07:23:00,
2013-04-20 00:28:00,38.7,32.1,30.24,ESE,106,0.0,3.6,77,0.00,,SCT,0.00,VWS V14.01,2013-04-20 07:28:00,
2013-04-20 00:30:00,38.7,32.1,30.24,SE,141,3.6,5.4,77,0.00,,SCT,0.00,VWS V14.01,2013-04-20 07:30:00,
2013-04-20 00:33:00,38.5,31.9,30.24,ENE,76,0.0,4.0,77,0.00,,SCT,0.00,VWS V14.01,2013-04-20 07:33:00,
2013-04-20 00:38:00,38.1,31.6,30.24,SE,139,0.0,4.0,77,0.00,,SCT,0.00,VWS V14.01,2013-04-20 07:38:00,
2013-04-20 00:43:00,37.8,31.2,30.24,ENE,72,0.0,4.5,77,0.00,,SCT,0.00,VWS V14.01,2013-04-20 07:43:00,
2013-04-20 00:45:00,37.8,31.2,30.24,SE,144,4.5,4.5,77,0.00,,SCT,0.00,VWS V14.01,2013-04-20 07:45:00,
2013-04-20 00:48:00,37.6,31.0,30.24,East,90,0.0,4.5,77,0.00,,SCT,0.00,VWS V14.01,2013-04-20 07:48:00,
2013-04-20 00:53:00,37.6,31.0,30.24,East,94,0.0,4.5,77,0.00,,SCT,0.00,VWS V14.01,2013-04-20 07:53:00,
2013-04-20 00:58:00,37.8,31.2,30.24,ESE,104,0.0,4.5,77,0.00,,SCT,0.00,VWS V14.01,2013-04-20 07:58:00,
2013-04-20 01:00:00,37.8,31.2,30.24,ESE,104,0.0,4.5,77,0.00,,SCT,0.00,VWS V14.01,2013-04-20 08:00:00,
2013-04-20 01:03:00,37.8,31.2,30.24,ESE,104,0.0,0.0,77,0.00,,SCT,0.00,VWS V14.01,2013-04-20 08:03:00,
2013-04-20 01:08:00,37.8,31.2,30.24,ESE,102,0.0,0.0,77,0.00,,SCT,0.00,VWS V14.01,2013-04-20 08:08:00,
2013-04-20 01:13:00,37.6,30.7,30.24,ESE,102,0.0,0.0,76,0.00,,SCT,0.00,VWS V14.01,2013-04-20 08:13:00,
2013-04-20 01:15:00,37.6,30.7,30.24,ENE,74,0.0,3.6,76,0.00,,SCT,0.00,VWS V14.01,2013-04-20 08:15:00,
2013-04-20 01:18:00,37.6,30.4,30.24,East,86,0.0,3.6,75,0.00,,SCT,0.00,VWS V14.01,2013-04-20 08:18:00,
2013-04-20 01:23:00,37.4,30.2,30.24,East,83,0.0,3.6,75,0.00,,SCT,0.00,VWS V14.01,2013-04-20 08:23:00,
2013-04-20 01:29:00,37.4,30.2,30.24,East,79,0.0,3.6,75,0.00,,SCT,0.00,VWS V14.01,2013-04-20 08:29:00,
2013-04-20 01:30:00,37.4,30.5,30.24,East,79,0.0,3.6,76,0.00,,SCT,0.00,VWS V14.01,2013-04-20 08:30:00,
2013-04-20 01:34:00,37.2,30.4,30.24,East,79,0.0,0.0,76,0.00,,SCT,0.00,VWS V14.01,2013-04-20 08:34:00,
2013-04-20 01:39:00,37.0,30.5,30.24,ENE,77,0.0,0.0,77,0.00,,SCT,0.00,VWS V14.01,2013-04-20 08:39:00,
2013-04-20 01:44:00,37.0,30.5,30.24,ESE,107,0.0,0.0,77,0.00,,SCT,0.00,VWS V14.01,2013-04-20 08:44:00,
2013-04-20 01:45:00,36.9,30.3,30.24,ESE,107,0.0,0.0,77,0.00,,SCT,0.00,VWS V14.01,2013-04-20 08:45:00,
2013-04-20 01:49:00,36.9,30.6,30.24,ESE,107,0.0,0.0,78,0.00,,SCT,0.00,VWS V14.01,2013-04-20 08:49:00,
2013-04-20 01:54:00,36.9,30.6,30.24,East,95,0.0,0.0,78,0.00,,SCT,0.00,VWS V14.01,2013-04-20 08:54:00,
2013-04-20 01:59:00,37.0,31.1,30.24,ESE,104,2.2,4.9,79,0.00,,SCT,0.00,VWS V14.01,2013-04-20 08:59:00,
2013-04-20 02:00:00,37.0,31.1,30.24,ESE,123,0.0,4.9,79,0.00,,SCT,0.00,VWS V14.01,2013-04-20 09:00:00,
2013-04-20 02:04:00,37.0,31.1,30.24,ESE,109,0.0,2.7,79,0.00,,SCT,0.00,VWS V14.01,2013-04-20 09:04:00,
2013-04-20 02:10:00,37.0,31.5,30.24,ESE,103,3.6,3.6,80,0.00,,SCT,0.00,VWS V14.01,2013-04-20 09:10:00,
2013-04-20 02:15:00,37.0,31.5,30.24,ESE,115,2.7,4.9,80,0.00,,SCT,0.00,VWS V14.01,2013-04-20 09:15:00,
2013-04-20 02:20:00,36.9,31.9,30.24,SE,141,4.9,6.3,82,0.00,,SCT,0.00,VWS V14.01,2013-04-20 09:20:00,
2013-04-20 02:25:00,36.9,31.9,30.24,SSE,149,3.6,8.3,82,0.00,,SCT,0.00,VWS V14.01,2013-04-20 09:25:00,
2013-04-20 02:30:00,36.7,32.0,30.24,SSE,152,4.0,4.9,83,0.00,,SCT,0.00,VWS V14.01,2013-04-20 09:30:00,
2013-04-20 02:35:00,36.7,32.0,30.24,SE,140,3.1,5.4,83,0.00,,SCT,0.00,VWS V14.01,2013-04-20 09:35:00,
2013-04-20 02:40:00,36.5,32.1,30.24,SE,145,3.1,7.6,84,0.00,,SCT,0.00,VWS V14.01,2013-04-20 09:40:00,
2013-04-20 02:45:00,36.3,32.0,30.24,SSE,148,2.7,3.6,84,0.00,,SCT,0.00,VWS V14.01,2013-04-20 09:45:00,
2013-04-20 02:50:00,36.3,32.0,30.24,SSE,150,0.0,4.9,84,0.00,,SCT,0.00,VWS V14.01,2013-04-20 09:50:00,
2013-04-20 02:55:00,36.1,32.1,30.24,SSE,159,0.0,4.9,85,0.00,,SCT,0.00,VWS V14.01,2013-04-20 09:55:00,
2013-04-20 03:00:00,36.0,31.9,30.24,SSE,148,4.9,4.9,85,0.00,,SCT,0.00,VWS V14.01,2013-04-20 10:00:00,
2013-04-20 03:05:00,36.0,31.9,30.24,ESE,112,0.0,6.3,85,0.00,,SCT,0.00,VWS V14.01,2013-04-20 10:05:00,
2013-04-20 03:10:00,36.0,32.2,30.24,SSE,162,4.9,8.1,86,0.00,,SCT,0.00,VWS V14.01,2013-04-20 10:10:00,
2013-04-20 03:15:00,36.0,32.2,30.24,SSE,162,3.6,5.4,86,0.00,,SCT,0.00,VWS V14.01,2013-04-20 10:15:00,
2013-04-20 03:21:00,36.0,32.2,30.24,SSE,148,6.3,7.6,86,0.00,,SCT,0.00,VWS V14.01,2013-04-20 10:21:00,
2013-04-20 03:26:00,35.8,32.0,30.24,SE,146,5.8,8.1,86,0.00,,SCT,0.00,VWS V14.01,2013-04-20 10:26:00,
2013-04-20 03:30:00,35.8,32.0,30.24,ENE,59,2.7,8.1,86,0.00,,SCT,0.00,VWS V14.01,2013-04-20 10:30:00,
2013-04-20 03:31:00,35.8,32.0,30.24,South,181,2.7,4.0,86,0.00,,SCT,0.00,VWS V14.01,2013-04-20 10:31:00,
2013-04-20 03:36:00,35.8,32.0,30.24,SSE,163,4.0,6.3,86,0.00,,SCT,0.00,VWS V14.01,2013-04-20 10:36:00,
2013-04-20 03:41:00,35.8,32.0,30.24,SE,140,4.9,6.3,86,0.00,,SCT,0.00,VWS V14.01,2013-04-20 10:41:00,
2013-04-20 03:45:00,35.6,31.8,30.24,SSE,151,3.1,6.3,86,0.00,,SCT,0.00,VWS V14.01,2013-04-20 10:45:00,
2013-04-20 03:46:00,35.6,31.8,30.24,SSE,150,3.1,5.8,86,0.00,,SCT,0.00,VWS V14.01,2013-04-20 10:46:00,
2013-04-20 03:51:00,35.6,31.8,30.24,SSE,159,0.0,6.3,86,0.00,,SCT,0.00,VWS V14.01,2013-04-20 10:51:00,
2013-04-20 03:56:00,35.8,32.3,30.24,South,176,2.7,6.3,87,0.00,,SCT,0.00,VWS V14.01,2013-04-20 10:56:00,
2013-04-20 04:00:00,35.8,32.0,30.24,SE,125,4.0,6.3,86,0.00,,SCT,0.00,VWS V14.01,2013-04-20 11:00:00,
2013-04-20 04:01:00,35.8,32.0,30.24,SE,139,2.7,5.8,86,0.00,,SCT,0.00,VWS V14.01,2013-04-20 11:01:00,
2013-04-20 04:06:00,35.8,32.0,30.21,South,179,0.0,6.3,86,0.00,,SCT,0.00,VWS V14.01,2013-04-20 11:06:00,
2013-04-20 04:11:00,35.8,32.0,30.21,WSW,238,0.0,6.3,86,0.00,,SCT,0.00,VWS V14.01,2013-04-20 11:11:00,
2013-04-20 04:15:00,35.8,32.0,30.21,South,174,4.0,7.2,86,0.00,,SCT,0.00,VWS V14.01,2013-04-20 11:15:00,
2013-04-20 04:16:00,35.8,32.0,30.21,SSW,195,2.7,5.8,86,0.00,,SCT,0.00,VWS V14.01,2013-04-20 11:16:00,
2013-04-20 04:21:00,35.6,31.8,30.24,SSW,207,0.0,5.8,86,0.00,,SCT,0.00,VWS V14.01,2013-04-20 11:21:00,
2013-04-20 04:26:00,35.6,31.8,30.24,South,176,0.0,5.8,86,0.00,,SCT,0.00,VWS V14.01,2013-04-20 11:26:00,
2013-04-20 04:30:00,35.4,31.7,30.24,South,188,0.0,5.8,86,0.00,,SCT,0.00,VWS V14.01,2013-04-20 11:30:00,
2013-04-20 04:31:00,35.4,31.7,30.24,SSW,203,0.0,0.0,86,0.00,,SCT,0.00,VWS V14.01,2013-04-20 11:31:00,
2013-04-20 04:37:00,35.2,31.8,30.24,SE,145,0.0,3.6,87,0.00,,SCT,0.00,VWS V14.01,2013-04-20 11:37:00,
2013-04-20 04:42:00,35.1,31.6,30.24,WSW,238,0.0,3.6,87,0.00,,SCT,0.00,VWS V14.01,2013-04-20 11:42:00,
2013-04-20 04:45:00,35.1,31.6,30.24,WSW,246,0.0,3.6,87,0.00,,SCT,0.00,VWS V14.01,2013-04-20 11:45:00,
2013-04-20 04:47:00,34.9,31.4,30.24,SW,224,0.0,0.0,87,0.00,,SCT,0.00,VWS V14.01,2013-04-20 11:47:00,
2013-04-20 04:52:00,34.9,31.7,30.24,South,181,0.0,0.0,88,0.00,,SCT,0.00,VWS V14.01,2013-04-20 11:52:00,
2013-04-20 04:57:00,34.7,31.5,30.24,South,185,0.0,4.9,88,0.00,,SCT,0.00,VWS V14.01,2013-04-20 11:57:00,
2013-04-20 05:00:00,34.7,31.5,30.24,South,171,0.0,4.9,88,0.00,,SCT,0.00,VWS V14.01,2013-04-20 12:00:00,
2013-04-20 05:02:00,34.7,31.5,30.24,SE,145,4.0,4.9,88,0.00,,SCT,0.00,VWS V14.01,2013-04-20 12:02:00,
2013-04-20 05:07:00,34.7,31.5,30.24,SE,128,0.0,4.9,88,0.00,,SCT,0.00,VWS V14.01,2013-04-20 12:07:00,
2013-04-20 05:12:00,34.7,31.5,30.24,SE,139,3.6,4.9,88,0.00,,SCT,0.00,VWS V14.01,2013-04-20 12:12:00,
2013-04-20 05:15:00,34.7,31.5,30.24,SE,138,0.0,4.9,88,0.00,,SCT,0.00,VWS V14.01,2013-04-20 12:15:00,
2013-04-20 05:17:00,34.5,31.3,30.24,SSE,149,0.0,0.0,88,0.00,,SCT,0.00,VWS V14.01,2013-04-20 12:17:00,
2013-04-20 05:22:00,34.5,31.3,30.24,South,190,0.0,0.0,88,0.00,,SCT,0.00,VWS V14.01,2013-04-20 12:22:00,
2013-04-20 05:27:00,34.7,31.2,30.24,South,180,0.0,0.0,87,0.00,,SCT,0.00,VWS V14.01,2013-04-20 12:27:00,
2013-04-20 05:30:00,34.7,31.2,30.24,South,180,0.0,0.0,87,0.00,,SCT,0.00,VWS V14.01,2013-04-20 12:30:00,
2013-04-20 05:32:00,34.7,31.2,30.24,South,180,0.0,0.0,87,0.00,,SCT,0.00,VWS V14.01,2013-04-20 12:32:00,
2013-04-20 05:37:00,34.7,31.0,30.24,South,169,0.0,0.0,86,0.00,,SCT,0.00,VWS V14.01,2013-04-20 12:37:00,
2013-04-20 05:42:00,34.7,30.7,30.24,ENE,65,2.7,3.6,85,0.00,,SCT,0.00,VWS V14.01,2013-04-20 12:42:00,
2013-04-20 05:45:00,34.5,30.2,30.24,SSW,195,0.0,3.6,84,0.00,,SCT,0.00,VWS V14.01,2013-04-20 12:45:00,
2013-04-20 05:48:00,34.7,30.4,30.24,SSE,157,0.0,0.0,84,0.00,,SCT,0.00,VWS V14.01,2013-04-20 12:48:00,
2013-04-20 05:53:00,34.7,29.8,30.24,South,171,0.0,0.0,82,0.00,,SCT,0.00,VWS V14.01,2013-04-20 12:53:00,
2013-04-20 05:58:00,34.7,29.8,30.24,South,189,0.0,0.0,82,0.00,,SCT,0.00,VWS V14.01,2013-04-20 12:58:00,
2013-04-20 06:00:00,34.5,29.6,30.24,South,189,0.0,0.0,82,0.00,,SCT,0.00,VWS V14.01,2013-04-20 13:00:00,
2013-04-20 06:03:00,34.5,29.6,30.24,SE,124,0.0,0.0,82,0.00,,SCT,0.00,VWS V14.01,2013-04-20 13:03:00,
2013-04-20 06:08:00,34.5,29.9,30.24,SE,132,0.0,5.4,83,0.00,,SCT,0.00,VWS V14.01,2013-04-20 13:08:00,
2013-04-20 06:13:00,34.5,29.9,30.24,SSE,163,0.0,5.4,83,0.00,,SCT,0.00,VWS V14.01,2013-04-20 13:13:00,
2013-04-20 06:15:00,34.5,29.9,30.24,South,178,0.0,5.4,83,0.00,,SCT,0.00,VWS V14.01,2013-04-20 13:15:00,
2013-04-20 06:18:00,34.5,30.2,30.24,SSE,155,0.0,5.8,84,0.00,,SCT,0.00,VWS V14.01,2013-04-20 13:18:00,
2013-04-20 06:27:00,34.3,30.3,30.24,ESE,104,0.0,0.0,85,0.00,,SCT,0.00,VWS V14.01,2013-04-20 13:27:00,
2013-04-20 06:30:00,34.3,30.3,30.24,SE,128,2.7,2.7,85,0.00,,SCT,0.00,VWS V14.01,2013-04-20 13:30:00,
2013-04-20 06:32:00,34.3,30.6,30.24,SSW,195,3.6,5.4,86,0.00,,SCT,0.00,VWS V14.01,2013-04-20 13:32:00,
2013-04-20 06:37:00,34.2,30.4,30.24,ESE,102,4.0,5.4,86,0.00,,SCT,0.00,VWS V14.01,2013-04-20 13:37:00,
2013-04-20 06:42:00,34.2,30.4,30.24,South,177,4.0,5.8,86,0.00,,SCT,0.00,VWS V14.01,2013-04-20 13:42:00,
2013-04-20 06:45:00,34.2,30.4,30.24,ESE,116,0.0,5.8,86,0.00,,SCT,0.00,VWS V14.01,2013-04-20 13:45:00,
2013-04-20 06:47:00,34.2,30.4,30.24,SE,126,0.0,4.9,86,0.00,,SCT,0.00,VWS V14.01,2013-04-20 13:47:00,
2013-04-20 06:52:00,34.2,30.4,30.24,South,180,3.6,5.4,86,0.00,,SCT,0.00,VWS V14.01,2013-04-20 13:52:00,
2013-04-20 06:57:00,34.3,30.9,30.24,East,79,4.5,5.4,87,0.00,,SCT,0.00,VWS V14.01,2013-04-20 13:57:00,
2013-04-20 07:00:00,34.3,30.6,30.24,SE,141,3.1,6.3,86,0.00,,SCT,0.00,VWS V14.01,2013-04-20 14:00:00,
2013-04-20 07:02:00,34.3,30.6,30.24,ENE,77,0.0,5.4,86,0.00,,SCT,0.00,VWS V14.01,2013-04-20 14:02:00,
2013-04-20 07:07:00,34.3,30.6,30.24,SSE,158,3.1,5.8,86,0.00,,SCT,0.00,VWS V14.01,2013-04-20 14:07:00,
2013-04-20 07:12:00,34.5,30.8,30.24,SE,137,5.4,10.1,86,0.00,,SCT,0.00,VWS V14.01,2013-04-20 14:12:00,
2013-04-20 07:15:00,34.5,30.8,30.24,SE,129,0.0,10.1,86,0.00,,SCT,0.00,VWS V14.01,2013-04-20 14:15:00,
2013-04-20 07:17:00,34.5,30.8,30.24,SE,124,2.2,6.3,86,0.00,,SCT,0.00,VWS V14.01,2013-04-20 14:17:00,
2013-04-20 07:22:00,34.7,31.0,30.24,SSE,152,6.3,6.3,86,0.00,,SCT,0.00,VWS V14.01,2013-04-20 14:22:00,
2013-04-20 07:27:00,34.9,31.1,30.24,SSW,211,0.0,6.3,86,0.00,,SCT,0.00,VWS V14.01,2013-04-20 14:27:00,
2013-04-20 07:30:00,34.9,31.1,30.24,SSW,202,0.0,6.3,86,0.00,,SCT,0.00,VWS V14.01,2013-04-20 14:30:00,
2013-04-20 07:32:00,34.9,31.1,30.24,ESE,122,5.8,7.6,86,0.00,,SCT,0.00,VWS V14.01,2013-04-20 14:32:00,
2013-04-20 07:37:00,35.1,31.3,30.24,East,88,5.4,7.6,86,0.00,,SCT,0.00,VWS V14.01,2013-04-20 14:37:00,
2013-04-20 07:42:00,35.2,31.5,30.24,SSE,163,3.6,7.6,86,0.00,,SCT,0.00,VWS V14.01,2013-04-20 14:42:00,
2013-04-20 07:45:00,35.4,31.7,30.24,SE,146,0.0,8.7,86,0.00,,SCT,0.00,VWS V14.01,2013-04-20 14:45:00,
2013-04-20 07:47:00,35.6,31.5,30.24,SSE,160,0.0,0.0,85,0.00,,SCT,0.00,VWS V14.01,2013-04-20 14:47:00,
2013-04-20 07:52:00,35.8,31.7,30.24,SSE,166,3.1,5.4,85,0.00,,SCT,0.00,VWS V14.01,2013-04-20 14:52:00,
2013-04-20 07:57:00,36.1,31.8,30.24,SSE,164,5.4,5.4,84,0.00,,SCT,0.00,VWS V14.01,2013-04-20 14:57:00,
2013-04-20 08:00:00,36.1,31.8,30.24,SSW,198,5.4,6.3,84,0.00,,SCT,0.00,VWS V14.01,2013-04-20 15:00:00,
2013-04-20 08:02:00,36.3,31.7,30.24,SW,221,3.1,6.3,83,0.00,,SCT,0.00,VWS V14.01,2013-04-20 15:02:00,
2013-04-20 08:07:00,36.7,32.0,30.24,SE,133,4.0,6.3,83,0.00,,SCT,0.00,VWS V14.01,2013-04-20 15:07:00,
2013-04-20 08:12:00,37.0,32.1,30.24,SSW,207,4.0,7.6,82,0.00,,SCT,0.00,VWS V14.01,2013-04-20 15:12:00,
2013-04-20 08:15:00,37.2,31.9,30.24,SW,217,2.7,7.6,81,0.00,,SCT,0.00,VWS V14.01,2013-04-20 15:15:00,
2013-04-20 08:17:00,37.4,31.8,30.24,East,92,2.2,5.4,80,0.00,,SCT,0.00,VWS V14.01,2013-04-20 15:17:00,
2013-04-20 08:22:00,37.9,31.7,30.27,ESE,123,5.8,5.8,78,0.00,,SCT,0.00,VWS V14.01,2013-04-20 15:22:00,
2013-04-20 08:27:00,38.3,31.7,30.27,South,189,4.0,5.8,77,0.00,,SCT,0.00,VWS V14.01,2013-04-20 15:27:00,
2013-04-20 08:30:00,38.5,31.9,30.27,SSE,163,3.1,5.8,77,0.00,,SCT,0.00,VWS V14.01,2013-04-20 15:30:00,
2013-04-20 08:32:00,38.7,31.8,30.27,South,191,4.9,5.8,76,0.00,,SCT,0.00,VWS V14.01,2013-04-20 15:32:00,
2013-04-20 08:37:00,39.2,31.0,30.24,SSE,164,0.0,5.8,72,0.00,,SCT,0.00,VWS V14.01,2013-04-20 15:37:00,
2013-04-20 08:42:00,39.6,30.6,30.24,SW,233,0.0,5.8,70,0.00,,SCT,0.00,VWS V14.01,2013-04-20 15:42:00,
2013-04-20 08:45:00,39.7,30.4,30.24,SE,124,5.8,5.8,69,0.00,,SCT,0.00,VWS V14.01,2013-04-20 15:45:00,
2013-04-20 08:48:00,40.1,30.8,30.24,SE,143,6.3,6.3,69,0.00,,SCT,0.00,VWS V14.01,2013-04-20 15:48:00,
2013-04-20 08:53:00,40.5,30.4,30.24,SSE,149,0.0,6.3,67,0.00,,SCT,0.00,VWS V14.01,2013-04-20 15:53:00,
2013-04-20 08:58:00,41.0,30.1,30.24,SSE,151,5.8,6.3,65,0.00,,SCT,0.00,VWS V14.01,2013-04-20 15:58:00,
2013-04-20 09:00:00,41.2,29.6,30.24,South,188,0.0,6.3,63,0.00,,SCT,0.00,VWS V14.01,2013-04-20 16:00:00,
2013-04-20 09:03:00,41.4,29.7,30.24,SSW,194,0.0,4.0,63,0.00,,SCT,0.00,VWS V14.01,2013-04-20 16:03:00,
2013-04-20 09:08:00,41.7,28.9,30.24,SE,132,0.0,4.0,60,0.00,,SCT,0.00,VWS V14.01,2013-04-20 16:08:00,
2013-04-20 09:13:00,42.3,29.8,30.24,ESE,115,0.0,4.0,61,0.00,,SCT,0.00,VWS V14.01,2013-04-20 16:13:00,
2013-04-20 09:15:00,42.4,28.7,30.24,SSE,151,3.6,5.4,58,0.00,,SCT,0.00,VWS V14.01,2013-04-20 16:15:00,
2013-04-20 09:18:00,42.6,28.5,30.24,East,97,0.0,3.6,57,0.00,,SCT,0.00,VWS V14.01,2013-04-20 16:18:00,
2013-04-20 09:23:00,43.0,29.2,30.24,SSW,206,0.0,3.6,58,0.00,,SCT,0.00,VWS V14.01,2013-04-20 16:23:00,
2013-04-20 09:28:00,43.5,29.3,30.24,South,185,0.0,6.3,57,0.00,,SCT,0.00,VWS V14.01,2013-04-20 16:28:00,
2013-04-20 09:30:00,43.7,29.5,30.24,SW,217,0.0,6.3,57,0.00,,SCT,0.00,VWS V14.01,2013-04-20 16:30:00,
2013-04-20 09:33:00,43.9,29.6,30.24,SSE,162,0.0,4.0,57,0.00,,SCT,0.00,VWS V14.01,2013-04-20 16:33:00,
2013-04-20 09:38:00,44.6,29.5,30.24,ENE,58,2.7,5.8,55,0.00,,SCT,0.00,VWS V14.01,2013-04-20 16:38:00,
2013-04-20 09:43:00,45.0,28.4,30.24,SE,129,0.0,6.3,52,0.00,,SCT,0.00,VWS V14.01,2013-04-20 16:43:00,
2013-04-20 09:45:00,45.0,28.4,30.24,SE,129,0.0,6.3,52,0.00,,SCT,0.00,VWS V14.01,2013-04-20 16:45:00,
2013-04-20 09:48:00,45.1,27.6,30.24,SE,130,3.6,3.6,50,0.00,,SCT,0.00,VWS V14.01,2013-04-20 16:48:00,
2013-04-20 09:53:00,45.7,26.6,30.24,South,191,0.0,4.0,47,0.00,,SCT,0.00,VWS V14.01,2013-04-20 16:53:00,
2013-04-20 09:58:00,46.4,26.2,30.24,SE,127,0.0,4.0,45,0.00,,SCT,0.00,VWS V14.01,2013-04-20 16:58:00,
2013-04-20 10:00:00,46.8,27.6,30.24,SSW,199,0.0,4.0,47,0.00,,SCT,0.00,VWS V14.01,2013-04-20 17:00:00,
2013-04-20 10:03:00,46.9,28.3,30.24,SE,137,0.0,0.0,48,0.00,,SCT,0.00,VWS V14.01,2013-04-20 17:03:00,
2013-04-20 10:08:00,47.7,29.0,30.24,SE,138,3.6,6.3,48,0.00,,SCT,0.00,VWS V14.01,2013-04-20 17:08:00,
2013-04-20 10:13:00,48.2,28.4,30.24,SE,129,5.8,7.2,46,0.00,,SCT,0.00,VWS V14.01,2013-04-20 17:13:00,
2013-04-20 10:15:00,48.4,28.0,30.24,SSE,165,5.4,7.2,45,0.00,,SCT,0.00,VWS V14.01,2013-04-20 17:15:00,
2013-04-20 10:18:00,48.7,28.9,30.24,SSE,159,0.0,5.4,46,0.00,,SCT,0.00,VWS V14.01,2013-04-20 17:18:00,
2013-04-20 10:23:00,48.6,27.6,30.24,SE,138,7.6,8.1,44,0.00,,SCT,0.00,VWS V14.01,2013-04-20 17:23:00,
2013-04-20 10:28:00,48.7,28.9,30.24,ESE,123,3.1,8.3,46,0.00,,SCT,0.00,VWS V14.01,2013-04-20 17:28:00,
2013-04-20 10:30:00,48.9,28.5,30.24,ESE,122,3.6,8.3,45,0.00,,SCT,0.00,VWS V14.01,2013-04-20 17:30:00,
2013-04-20 10:33:00,49.5,29.0,30.24,SE,135,2.7,8.3,45,0.00,,SCT,0.00,VWS V14.01,2013-04-20 17:33:00,
2013-04-20 10:38:00,50.2,29.1,30.24,SE,133,4.0,8.3,44,0.00,,SCT,0.00,VWS V14.01,2013-04-20 17:38:00,
2013-04-20 10:43:00,50.5,28.9,30.24,ENE,73,0.0,8.3,43,0.00,,SCT,0.00,VWS V14.01,2013-04-20 17:43:00,
2013-04-20 10:45:00,50.7,28.5,30.24,SE,139,2.7,8.3,42,0.00,,SCT,0.00,VWS V14.01,2013-04-20 17:45:00,
2013-04-20 10:48:00,50.7,28.5,30.24,SE,140,8.1,8.1,42,0.00,,SCT,0.00,VWS V14.01,2013-04-20 17:48:00,
2013-04-20 10:53:00,50.2,26.8,30.24,SSW,193,4.0,8.1,40,0.00,,SCT,0.00,VWS V14.01,2013-04-20 17:53:00,
2013-04-20 10:58:00,50.4,27.6,30.24,ESE,120,0.0,8.1,41,0.00,,SCT,0.00,VWS V14.01,2013-04-20 17:58:00,
2013-04-20 11:00:00,50.4,27.0,30.24,SSE,152,5.4,8.1,40,0.00,,SCT,0.00,VWS V14.01,2013-04-20 18:00:00,
2013-04-20 11:03:00,50.5,27.1,30.24,South,171,0.0,6.3,40,0.00,,SCT,0.00,VWS V14.01,2013-04-20 18:03:00,
2013-04-20 11:08:00,50.7,27.3,30.24,South,169,6.3,6.3,40,0.00,,SCT,0.00,VWS V14.01,2013-04-20 18:08:00,
2013-04-20 11:13:00,50.7,27.3,30.24,SE,132,6.3,10.1,40,0.00,,SCT,0.00,VWS V14.01,2013-04-20 18:13:00,
2013-04-20 11:15:00,50.9,27.5,30.24,SE,130,0.0,10.1,40,0.00,,SCT,0.00,VWS V14.01,2013-04-20 18:15:00,
2013-04-20 11:18:00,51.3,27.2,30.24,SE,137,4.0,6.7,39,0.00,,SCT,0.00,VWS V14.01,2013-04-20 18:18:00,
2013-04-20 11:23:00,51.6,28.1,30.27,SSW,196,0.0,8.7,40,0.00,,SCT,0.00,VWS V14.01,2013-04-20 18:23:00,
2013-04-20 11:28:00,51.8,27.6,30.27,SSW,211,3.1,8.7,39,0.00,,SCT,0.00,VWS V14.01,2013-04-20 18:28:00,
2013-04-20 11:30:00,51.8,27.6,30.27,SSE,151,8.1,11.0,39,0.00,,SCT,0.00,VWS V14.01,2013-04-20 18:30:00,
2013-04-20 11:33:00,51.8,27.6,30.27,East,79,0.0,8.7,39,0.00,,SCT,0.00,VWS V14.01,2013-04-20 18:33:00,
2013-04-20 11:38:00,52.0,27.2,30.27,SSE,149,0.0,8.7,38,0.00,,SCT,0.00,VWS V14.01,2013-04-20 18:38:00,
2013-04-20 11:43:00,52.2,27.3,30.27,NNW,327,4.9,8.7,38,0.00,,SCT,0.00,VWS V14.01,2013-04-20 18:43:00,
2013-04-20 11:45:00,52.2,27.3,30.27,WNW,301,0.0,8.7,38,0.00,,SCT,0.00,VWS V14.01,2013-04-20 18:45:00,
2013-04-20 11:48:00,52.3,27.5,30.27,East,84,2.7,8.3,38,0.00,,SCT,0.00,VWS V14.01,2013-04-20 18:48:00,
2013-04-20 11:53:00,52.7,27.8,30.24,WSW,247,0.0,8.3,38,0.00,,SCT,0.00,VWS V14.01,2013-04-20 18:53:00,
2013-04-20 11:58:00,52.9,27.3,30.24,SSW,196,5.4,8.3,37,0.00,,SCT,0.00,VWS V14.01,2013-04-20 18:58:00,
2013-04-20 12:00:00,52.9,27.3,30.24,SSE,148,5.4,10.5,37,0.00,,SCT,0.00,VWS V14.01,2013-04-20 19:00:00,
2013-04-20 12:03:00,53.1,27.5,30.24,SE,136,5.8,8.1,37,0.00,,SCT,0.00,VWS V14.01,2013-04-20 19:03:00,
2013-04-20 12:08:00,53.4,27.8,30.24,SE,135,6.3,8.1,37,0.00,,SCT,0.00,VWS V14.01,2013-04-20 19:08:00,
2013-04-20 12:13:00,53.4,27.8,30.24,South,177,3.1,8.3,37,0.00,,SCT,0.00,VWS V14.01,2013-04-20 19:13:00,
2013-04-20 12:15:00,53.4,27.8,30.24,SW,217,3.6,8.3,37,0.00,,SCT,0.00,VWS V14.01,2013-04-20 19:15:00,
2013-04-20 12:18:00,53.8,27.5,30.24,SSW,212,0.0,4.0,36,0.00,,SCT,0.00,VWS V14.01,2013-04-20 19:18:00,
2013-04-20 12:23:00,54.5,28.1,30.24,NNW,327,0.0,6.3,36,0.00,,SCT,0.00,VWS V14.01,2013-04-20 19:23:00,
2013-04-20 12:28:00,55.2,28.8,30.24,West,267,3.1,6.3,36,0.00,,SCT,0.00,VWS V14.01,2013-04-20 19:28:00,
2013-04-20 12:30:00,55.4,28.9,30.24,SSW,196,4.5,6.3,36,0.00,,SCT,0.00,VWS V14.01,2013-04-20 19:30:00,
2013-04-20 12:33:00,55.6,29.1,30.24,South,191,5.4,8.1,36,0.00,,SCT,0.00,VWS V14.01,2013-04-20 19:33:00,
2013-04-20 12:38:00,55.6,28.4,30.24,SSE,166,5.4,8.1,35,0.00,,SCT,0.00,VWS V14.01,2013-04-20 19:38:00,
2013-04-20 12:43:00,55.9,28.7,30.24,NNW,338,0.0,8.1,35,0.00,,SCT,0.00,VWS V14.01,2013-04-20 19:43:00,
2013-04-20 12:45:00,56.1,28.9,30.24,WNW,297,0.0,8.1,35,0.00,,SCT,0.00,VWS V14.01,2013-04-20 19:45:00,
2013-04-20 12:48:00,56.1,28.9,30.24,SSE,152,2.2,3.1,35,0.00,,SCT,0.00,VWS V14.01,2013-04-20 19:48:00,
2013-04-20 12:53:00,56.5,29.2,30.24,ESE,114,0.0,4.9,35,0.00,,SCT,0.00,VWS V14.01,2013-04-20 19:53:00,
2013-04-20 12:58:00,56.8,29.5,30.24,NNW,343,0.0,7.6,35,0.00,,SCT,0.00,VWS V14.01,2013-04-20 19:58:00,
2013-04-20 13:00:00,57.0,29.7,30.24,SE,143,0.0,7.6,35,0.00,,SCT,0.00,VWS V14.01,2013-04-20 20:00:00,
2013-04-20 13:03:00,57.9,30.5,30.24,North,0,0.0,0.0,35,0.00,,SCT,0.00,VWS V14.01,2013-04-20 20:03:00,
2013-04-20 13:08:00,58.5,30.9,30.24,NW,326,0.0,0.0,35,0.00,,SCT,0.00,VWS V14.01,2013-04-20 20:08:00,
2013-04-20 13:13:00,59.2,30.9,30.24,NNW,331,0.0,4.0,34,0.00,,SCT,0.00,VWS V14.01,2013-04-20 20:13:00,
2013-04-20 13:15:00,59.5,31.2,30.24,SE,137,0.0,4.0,34,0.00,,SCT,0.00,VWS V14.01,2013-04-20 20:15:00,
2013-04-20 13:18:00,60.1,31.6,30.24,NNW,332,0.0,0.0,34,0.00,,SCT,0.00,VWS V14.01,2013-04-20 20:18:00,
2013-04-20 13:23:00,60.4,30.5,30.24,NW,323,0.0,6.3,32,0.00,,SCT,0.00,VWS V14.01,2013-04-20 20:23:00,
2013-04-20 13:28:00,60.8,30.0,30.24,NW,315,0.0,6.3,31,0.00,,SCT,0.00,VWS V14.01,2013-04-20 20:28:00,
2013-04-20 13:30:00,61.0,30.2,30.24,NW,322,0.0,6.3,31,0.00,,SCT,0.00,VWS V14.01,2013-04-20 20:30:00,
2013-04-20 13:33:00,61.2,29.5,30.24,SSE,151,0.0,4.9,30,0.00,,SCT,0.00,VWS V14.01,2013-04-20 20:33:00,
2013-04-20 13:38:00,61.7,30.0,30.24,North,1,4.9,7.2,30,0.00,,SCT,0.00,VWS V14.01,2013-04-20 20:38:00,
2013-04-20 13:43:00,62.1,30.3,30.24,East,85,0.0,7.2,30,0.00,,SCT,0.00,VWS V14.01,2013-04-20 20:43:00,
2013-04-20 13:45:00,62.1,29.5,30.24,East,96,2.2,7.2,29,0.00,,SCT,0.00,VWS V14.01,2013-04-20 20:45:00,
2013-04-20 13:49:00,62.1,30.3,30.24,NW,318,0.0,4.9,30,0.00,,SCT,0.00,VWS V14.01,2013-04-20 20:49:00,
2013-04-20 13:54:00,62.6,29.9,30.24,SE,140,0.0,5.8,29,0.00,,SCT,0.00,VWS V14.01,2013-04-20 20:54:00,
2013-04-20 13:59:00,63.0,29.4,30.24,NNW,331,4.0,5.8,28,0.00,,SCT,0.00,VWS V14.01,2013-04-20 20:59:00,
2013-04-20 14:00:00,62.6,29.1,30.24,NW,308,2.7,5.8,28,0.00,,SCT,0.00,VWS V14.01,2013-04-20 21:00:00,
2013-04-20 14:04:00,63.0,30.2,30.24,West,271,0.0,2.7,29,0.00,,SCT,0.00,VWS V14.01,2013-04-20 21:04:00,
2013-04-20 14:09:00,63.7,30.0,30.21,NNW,342,0.0,6.3,28,0.00,,SCT,0.00,VWS V14.01,2013-04-20 21:09:00,
2013-04-20 14:14:00,63.9,30.1,30.21,ESE,108,3.6,6.3,28,0.00,,SCT,0.00,VWS V14.01,2013-04-20 21:14:00,
2013-04-20 14:15:00,64.0,30.3,30.21,NW,304,5.4,6.3,28,0.00,,SCT,0.00,VWS V14.01,2013-04-20 21:15:00,
2013-04-20 14:19:00,63.9,30.1,30.21,SE,136,2.2,5.4,28,0.00,,SCT,0.00,VWS V14.01,2013-04-20 21:19:00,
2013-04-20 14:24:00,63.1,29.5,30.21,East,96,4.0,9.6,28,0.00,,SCT,0.00,VWS V14.01,2013-04-20 21:24:00,
2013-04-20 14:29:00,63.5,29.8,30.21,NNW,327,0.0,9.6,28,0.00,,SCT,0.00,VWS V14.01,2013-04-20 21:29:00,
2013-04-20 14:30:00,63.5,29.8,30.21,NNW,341,6.3,9.6,28,0.00,,SCT,0.00,VWS V14.01,2013-04-20 21:30:00,
2013-04-20 14:34:00,64.0,29.4,30.21,WNW,297,2.2,8.1,27,0.00,,SCT,0.00,VWS V14.01,2013-04-20 21:34:00,
2013-04-20 14:39:00,63.9,29.3,30.24,SE,137,0.0,8.1,27,0.00,,SCT,0.00,VWS V14.01,2013-04-20 21:39:00,
2013-04-20 14:44:00,63.7,29.1,30.24,NNW,339,4.0,8.1,27,0.00,,SCT,0.00,VWS V14.01,2013-04-20 21:44:00,
2013-04-20 14:45:00,63.5,28.0,30.24,NW,317,5.4,8.3,26,0.00,,SCT,0.00,VWS V14.01,2013-04-20 21:45:00,
2013-04-20 14:49:00,63.5,29.0,30.24,SE,124,0.0,5.8,27,0.00,,SCT,0.00,VWS V14.01,2013-04-20 21:49:00,
2013-04-20 14:54:00,64.0,29.4,30.21,NNW,334,6.3,8.1,27,0.00,,SCT,0.00,VWS V14.01,2013-04-20 21:54:00,
2013-04-20 14:59:00,64.2,29.6,30.21,East,101,0.0,8.1,27,0.00,,SCT,0.00,VWS V14.01,2013-04-20 21:59:00,
2013-04-20 15:00:00,64.4,29.7,30.21,NNW,335,0.0,8.1,27,0.00,,SCT,0.00,VWS V14.01,2013-04-20 22:00:00,
2013-04-20 15:04:00,64.6,29.0,30.21,West,262,0.0,6.7,26,0.00,,SCT,0.00,VWS V14.01,2013-04-20 22:04:00,
2013-04-20 15:09:00,64.6,29.0,30.21,WSW,258,0.0,7.2,26,0.00,,SCT,0.00,VWS V14.01,2013-04-20 22:09:00,
2013-04-20 15:14:00,64.8,30.0,30.21,NNE,16,0.0,7.2,27,0.00,,SCT,0.00,VWS V14.01,2013-04-20 22:14:00,
2013-04-20 15:15:00,64.8,29.1,30.21,NNW,345,2.2,8.7,26,0.00,,SCT,0.00,VWS V14.01,2013-04-20 22:15:00,
2013-04-20 15:19:00,64.6,29.9,30.21,SSE,165,0.0,7.6,27,0.00,,SCT,0.00,VWS V14.01,2013-04-20 22:19:00,
2013-04-20 15:24:00,64.0,28.5,30.21,NW,320,7.2,8.3,26,0.00,,SCT,0.00,VWS V14.01,2013-04-20 22:24:00,
2013-04-20 15:29:00,63.0,27.6,30.21,North,0,0.0,10.5,26,0.00,,SCT,0.00,VWS V14.01,2013-04-20 22:29:00,
2013-04-20 15:30:00,62.6,27.3,30.21,West,275,2.7,10.5,26,0.00,,SCT,0.00,VWS V14.01,2013-04-20 22:30:00,
2013-04-20 15:34:00,63.1,27.7,30.21,East,95,0.0,6.3,26,0.00,,SCT,0.00,VWS V14.01,2013-04-20 22:34:00,
2013-04-20 15:39:00,63.5,28.0,30.21,West,270,3.1,6.7,26,0.00,,SCT,0.00,VWS V14.01,2013-04-20 22:39:00,
2013-04-20 15:44:00,63.5,28.0,30.21,NNW,338,3.6,10.1,26,0.00,,SCT,0.00,VWS V14.01,2013-04-20 22:44:00,
2013-04-20 15:45:00,63.3,27.9,30.21,NW,316,6.3,10.1,26,0.00,,SCT,0.00,VWS V14.01,2013-04-20 22:45:00,
2013-04-20 15:49:00,63.1,27.7,30.21,North,5,2.2,7.2,26,0.00,,SCT,0.00,VWS V14.01,2013-04-20 22:49:00,
2013-04-20 15:54:00,63.3,28.8,30.21,West,272,3.1,7.2,27,0.00,,SCT,0.00,VWS V14.01,2013-04-20 22:54:00,
2013-04-20 15:59:00,63.9,29.3,30.21,NW,311,4.0,8.1,27,0.00,,SCT,0.00,VWS V14.01,2013-04-20 22:59:00,
2013-04-20 16:00:00,63.7,28.2,30.21,WNW,296,2.7,11.0,26,0.00,,SCT,0.00,VWS V14.01,2013-04-20 23:00:00,
2013-04-20 16:04:00,63.7,29.1,30.21,WSW,257,0.0,10.5,27,0.00,,SCT,0.00,VWS V14.01,2013-04-20 23:04:00,
2013-04-20 16:09:00,63.5,29.0,30.21,NW,322,4.0,10.5,27,0.00,,SCT,0.00,VWS V14.01,2013-04-20 23:09:00,
2013-04-20 16:14:00,63.0,28.5,30.21,NW,322,0.0,10.5,27,0.00,,SCT,0.00,VWS V14.01,2013-04-20 23:14:00,
2013-04-20 16:15:00,63.1,28.6,30.21,WSW,253,0.0,10.5,27,0.00,,SCT,0.00,VWS V14.01,2013-04-20 23:15:00,
2013-04-20 16:19:00,63.5,29.0,30.21,ESE,116,0.0,3.6,27,0.00,,SCT,0.00,VWS V14.01,2013-04-20 23:19:00,
2013-04-20 16:24:00,63.3,28.8,30.21,NNW,341,6.7,8.3,27,0.00,,SCT,0.00,VWS V14.01,2013-04-20 23:24:00,
2013-04-20 16:29:00,62.8,28.3,30.21,WNW,286,10.5,10.5,27,0.00,,SCT,0.00,VWS V14.01,2013-04-20 23:29:00,
2013-04-20 16:30:00,62.8,28.3,30.21,NNW,346,3.1,10.5,27,0.00,,SCT,0.00,VWS V14.01,2013-04-20 23:30:00,
2013-04-20 16:34:00,62.8,28.3,30.21,NW,324,0.0,8.1,27,0.00,,SCT,0.00,VWS V14.01,2013-04-20 23:34:00,
2013-04-20 16:39:00,62.8,28.3,30.21,North,4,0.0,8.3,27,0.00,,SCT,0.00,VWS V14.01,2013-04-20 23:39:00,
2013-04-20 16:44:00,63.0,28.5,30.21,West,271,0.0,12.3,27,0.00,,SCT,0.00,VWS V14.01,2013-04-20 23:44:00,
2013-04-20 16:45:00,63.0,28.5,30.21,NNW,343,5.8,12.3,27,0.00,,SCT,0.00,VWS V14.01,2013-04-20 23:45:00,
2013-04-20 16:49:00,63.0,27.6,30.21,NNW,328,12.3,12.3,26,0.00,,SCT,0.00,VWS V14.01,2013-04-20 23:49:00,
2013-04-20 16:54:00,62.1,27.7,30.21,NW,314,6.3,12.3,27,0.00,,SCT,0.00,VWS V14.01,2013-04-20 23:54:00,
2013-04-20 16:59:00,61.9,27.6,30.21,NW,305,3.1,12.3,27,0.00,,SCT,0.00,VWS V14.01,2013-04-20 23:59:00,
2013-04-20 17:00:00,61.7,27.4,30.21,West,274,5.4,12.3,27,0.00,,SCT,0.00,VWS V14.01,2013-04-21 00:00:00,
2013-04-20 17:04:00,61.9,28.4,30.21,NNW,346,3.1,8.7,28,0.00,,SCT,0.00,VWS V14.01,2013-04-21 00:04:00,
2013-04-20 17:09:00,61.7,28.3,30.21,WNW,289,2.2,8.7,28,0.00,,SCT,0.00,VWS V14.01,2013-04-21 00:09:00,
2013-04-20 17:14:00,62.2,28.8,30.21,NNW,341,3.6,8.7,28,0.00,,SCT,0.00,VWS V14.01,2013-04-21 00:14:00,
2013-04-20 17:15:00,62.2,28.8,30.21,NNW,333,4.9,8.7,28,0.00,,SCT,0.00,VWS V14.01,2013-04-21 00:15:00,
2013-04-20 17:19:00,62.1,28.6,30.21,ESE,105,2.7,8.7,28,0.00,,SCT,0.00,VWS V14.01,2013-04-21 00:19:00,
2013-04-20 17:24:00,61.9,28.4,30.21,NNE,29,3.6,11.0,28,0.00,,SCT,0.00,VWS V14.01,2013-04-21 00:24:00,
2013-04-20 17:29:00,61.9,28.4,30.21,NE,34,0.0,11.0,28,0.00,,SCT,0.00,VWS V14.01,2013-04-21 00:29:00,
2013-04-20 17:30:00,61.9,29.3,30.21,NW,314,8.7,11.0,29,0.00,,SCT,0.00,VWS V14.01,2013-04-21 00:30:00,
2013-04-20 17:34:00,61.5,29.0,30.21,NNW,334,0.0,8.7,29,0.00,,SCT,0.00,VWS V14.01,2013-04-21 00:34:00,
2013-04-20 17:39:00,61.7,29.1,30.21,North,353,5.8,8.7,29,0.00,,SCT,0.00,VWS V14.01,2013-04-21 00:39:00,
2013-04-20 17:44:00,61.7,29.1,30.21,NNW,346,6.7,8.7,29,0.00,,SCT,0.00,VWS V14.01,2013-04-21 00:44:00,
2013-04-20 17:45:00,61.7,29.1,30.21,NNW,343,5.4,8.7,29,0.00,,SCT,0.00,VWS V14.01,2013-04-21 00:45:00,
2013-04-20 17:49:00,61.3,28.8,30.21,NW,310,0.0,8.3,29,0.00,,SCT,0.00,VWS V14.01,2013-04-21 00:49:00,
2013-04-20 17:54:00,61.2,29.5,30.21,WNW,299,4.0,8.3,30,0.00,,SCT,0.00,VWS V14.01,2013-04-21 00:54:00,
2013-04-20 17:59:00,60.8,28.4,30.21,NE,50,0.0,9.6,29,0.00,,SCT,0.00,VWS V14.01,2013-04-21 00:59:00,
2013-04-20 18:00:00,60.6,29.0,30.21,ESE,110,0.0,9.6,30,0.00,,SCT,0.00,VWS V14.01,2013-04-21 01:00:00,
2013-04-20 18:04:00,60.4,28.9,30.21,NW,304,8.3,8.3,30,0.00,,SCT,0.00,VWS V14.01,2013-04-21 01:04:00,
2013-04-20 18:09:00,60.6,29.0,30.21,North,350,8.1,8.7,30,0.00,,SCT,0.00,VWS V14.01,2013-04-21 01:09:00,
2013-04-20 18:14:00,60.4,28.9,30.21,North,0,0.0,8.7,30,0.00,,SCT,0.00,VWS V14.01,2013-04-21 01:14:00,
2013-04-20 18:15:00,60.3,28.7,30.21,North,0,0.0,8.7,30,0.00,,SCT,0.00,VWS V14.01,2013-04-21 01:15:00,
2013-04-20 18:19:00,59.7,28.3,30.21,NNW,333,0.0,8.3,30,0.00,,SCT,0.00,VWS V14.01,2013-04-21 01:19:00,
2013-04-20 18:24:00,59.2,27.8,30.21,NW,317,7.6,8.7,30,0.00,,SCT,0.00,VWS V14.01,2013-04-21 01:24:00,
2013-04-20 18:29:00,58.5,28.0,30.21,NNW,337,0.0,8.7,31,0.00,,SCT,0.00,VWS V14.01,2013-04-21 01:29:00,
2013-04-20 18:30:00,58.5,28.0,30.21,NW,315,0.0,8.7,31,0.00,,SCT,0.00,VWS V14.01,2013-04-21 01:30:00,
2013-04-20 18:34:00,58.1,27.6,30.21,NW,319,0.0,8.3,31,0.00,,SCT,0.00,VWS V14.01,2013-04-21 01:34:00,
2013-04-20 18:39:00,58.1,28.4,30.21,NW,310,0.0,8.3,32,0.00,,SCT,0.00,VWS V14.01,2013-04-21 01:39:00,
2013-04-20 18:44:00,57.9,29.0,30.21,WNW,289,0.0,8.3,33,0.00,,SCT,0.00,VWS V14.01,2013-04-21 01:44:00,
2013-04-20 18:45:00,57.9,29.0,30.21,WNW,288,0.0,8.3,33,0.00,,SCT,0.00,VWS V14.01,2013-04-21 01:45:00,
2013-04-20 18:49:00,57.9,29.0,30.21,WNW,294,0.0,5.8,33,0.00,,SCT,0.00,VWS V14.01,2013-04-21 01:49:00,
2013-04-20 18:54:00,57.2,28.4,30.21,NNW,332,0.0,5.8,33,0.00,,SCT,0.00,VWS V14.01,2013-04-21 01:54:00,
2013-04-20 18:59:00,57.0,29.0,30.21,NW,313,0.0,6.3,34,0.00,,SCT,0.00,VWS V14.01,2013-04-21 01:59:00,
2013-04-20 19:00:00,57.0,29.0,30.21,NW,326,7.6,7.6,34,0.00,,SCT,0.00,VWS V14.01,2013-04-21 02:00:00,
2013-04-20 19:04:00,56.3,29.0,30.21,NW,320,0.0,7.6,35,0.00,,SCT,0.00,VWS V14.01,2013-04-21 02:04:00,
2013-04-20 19:09:00,55.9,28.7,30.21,NNW,342,0.0,7.6,35,0.00,,SCT,0.00,VWS V14.01,2013-04-21 02:09:00,
2013-04-20 19:14:00,56.1,28.9,30.21,NW,314,0.0,7.6,35,0.00,,SCT,0.00,VWS V14.01,2013-04-21 02:14:00,
2013-04-20 19:15:00,56.1,28.9,30.21,North,353,0.0,7.6,35,0.00,,SCT,0.00,VWS V14.01,2013-04-21 02:15:00,
2013-04-20 19:19:00,56.1,28.9,30.21,WNW,293,0.0,0.0,35,0.00,,SCT,0.00,VWS V14.01,2013-04-21 02:19:00,
2013-04-20 19:24:00,56.1,28.9,30.21,NNW,332,0.0,4.9,35,0.00,,SCT,0.00,VWS V14.01,2013-04-21 02:24:00,
2013-04-20 19:29:00,55.8,28.5,30.21,NNW,331,0.0,4.9,35,0.00,,SCT,0.00,VWS V14.01,2013-04-21 02:29:00,
2013-04-20 19:30:00,55.4,28.9,30.21,NNW,338,0.0,4.9,36,0.00,,SCT,0.00,VWS V14.01,2013-04-21 02:30:00,
2013-04-20 19:34:00,54.9,28.4,30.21,NW,317,0.0,4.9,36,0.00,,SCT,0.00,VWS V14.01,2013-04-21 02:34:00,
2013-04-20 19:39:00,54.1,28.5,30.21,NW,315,0.0,4.9,37,0.00,,SCT,0.00,VWS V14.01,2013-04-21 02:39:00,
2013-04-20 19:44:00,53.6,28.0,30.21,North,353,0.0,4.9,37,0.00,,SCT,0.00,VWS V14.01,2013-04-21 02:44:00,
2013-04-20 19:45:00,53.6,28.0,30.21,North,353,0.0,4.9,37,0.00,,SCT,0.00,VWS V14.01,2013-04-21 02:45:00,
2013-04-20 19:49:00,53.1,28.1,30.21,NNW,333,0.0,0.0,38,0.00,,SCT,0.00,VWS V14.01,2013-04-21 02:49:00,
2013-04-20 19:54:00,52.3,27.5,30.21,NW,313,0.0,0.0,38,0.00,,SCT,0.00,VWS V14.01,2013-04-21 02:54:00,
2013-04-20 19:59:00,51.6,28.1,30.21,WNW,295,0.0,7.6,40,0.00,,SCT,0.00,VWS V14.01,2013-04-21 02:59:00,
2013-04-20 20:00:00,51.6,28.1,30.21,NW,326,0.0,7.6,40,0.00,,SCT,0.00,VWS V14.01,2013-04-21 03:00:00,
2013-04-20 20:05:00,51.1,28.2,30.21,NNW,335,0.0,0.0,41,0.00,,SCT,0.00,VWS V14.01,2013-04-21 03:05:00,
2013-04-20 20:10:00,50.7,28.5,30.21,NNW,338,0.0,0.0,42,0.00,,SCT,0.00,VWS V14.01,2013-04-21 03:10:00,
2013-04-20 20:15:00,50.0,28.4,30.21,NW,324,2.7,7.6,43,0.00,,SCT,0.00,VWS V14.01,2013-04-21 03:15:00,
2013-04-20 20:20:00,49.3,28.9,30.21,NNW,333,0.0,4.9,45,0.00,,SCT,0.00,VWS V14.01,2013-04-21 03:20:00,
2013-04-20 20:25:00,49.1,29.8,30.21,NNW,332,0.0,4.9,47,0.00,,SCT,0.00,VWS V14.01,2013-04-21 03:25:00,
2013-04-20 20:30:00,48.7,29.4,30.21,NNW,331,0.0,4.9,47,0.00,,SCT,0.00,VWS V14.01,2013-04-21 03:30:00,
2013-04-20 20:35:00,48.4,29.6,30.24,NNW,344,0.0,0.0,48,0.00,,SCT,0.00,VWS V14.01,2013-04-21 03:35:00,
2013-04-20 20:40:00,48.4,30.1,30.24,NNW,338,0.0,0.0,49,0.00,,SCT,0.00,VWS V14.01,2013-04-21 03:40:00,
2013-04-20 20:45:00,47.8,30.1,30.24,NW,326,0.0,0.0,50,0.00,,SCT,0.00,VWS V14.01,2013-04-21 03:45:00,
2013-04-20 20:50:00,47.3,30.1,30.24,NNW,327,0.0,0.0,51,0.00,,SCT,0.00,VWS V14.01,2013-04-21 03:50:00,
2013-04-20 20:55:00,46.9,30.2,30.24,NNW,338,0.0,0.0,52,0.00,,SCT,0.00,VWS V14.01,2013-04-21 03:55:00,
2013-04-20 21:00:00,46.8,30.5,30.24,NW,325,0.0,0.0,53,0.00,,SCT,0.00,VWS V14.01,2013-04-21 04:00:00,
2013-04-20 21:01:00,46.8,30.5,30.24,NW,322,0.0,0.0,53,0.00,,SCT,0.00,VWS V14.01,2013-04-21 04:01:00,
2013-04-20 21:02:00,46.6,30.4,30.24,NNW,329,0.0,0.0,53,0.00,,SCT,0.00,VWS V14.01,2013-04-21 04:02:00,
2013-04-20 21:03:00,46.6,30.4,30.24,NNW,328,0.0,0.0,53,0.00,,SCT,0.00,VWS V14.01,2013-04-21 04:03:00,
2013-04-20 21:08:00,46.4,30.2,30.24,NNW,327,0.0,0.0,53,0.00,,SCT,0.00,VWS V14.01,2013-04-21 04:08:00,
2013-04-20 21:13:00,46.2,31.0,30.24,NNW,331,0.0,0.0,55,0.00,,SCT,0.00,VWS V14.01,2013-04-21 04:13:00,
2013-04-20 21:15:00,46.2,31.0,30.24,NNW,331,0.0,0.0,55,0.00,,SCT,0.00,VWS V14.01,2013-04-21 04:15:00,
2013-04-20 21:18:00,46.2,30.5,30.24,NNW,330,0.0,0.0,54,0.00,,SCT,0.00,VWS V14.01,2013-04-21 04:18:00,
2013-04-20 21:23:00,46.6,30.4,30.24,NNW,330,0.0,0.0,53,0.00,,SCT,0.00,VWS V14.01,2013-04-21 04:23:00,
2013-04-20 21:28:00,46.6,30.4,30.24,NW,326,0.0,0.0,53,0.00,,SCT,0.00,VWS V14.01,2013-04-21 04:28:00,
2013-04-20 21:30:00,46.6,29.9,30.24,NW,326,0.0,0.0,52,0.00,,SCT,0.00,VWS V14.01,2013-04-21 04:30:00,
2013-04-20 21:33:00,46.6,29.9,30.24,NW,326,0.0,0.0,52,0.00,,SCT,0.00,VWS V14.01,2013-04-21 04:33:00,
2013-04-20 21:38:00,46.4,29.8,30.24,NW,317,0.0,0.0,52,0.00,,SCT,0.00,VWS V14.01,2013-04-21 04:38:00,
2013-04-20 21:43:00,46.0,29.4,30.24,NW,317,0.0,0.0,52,0.00,,SCT,0.00,VWS V14.01,2013-04-21 04:43:00,
2013-04-20 21:45:00,46.0,29.9,30.24,NW,317,0.0,0.0,53,0.00,,SCT,0.00,VWS V14.01,2013-04-21 04:45:00,
2013-04-20 21:48:00,45.7,29.1,30.24,NW,317,0.0,0.0,52,0.00,,SCT,0.00,VWS V14.01,2013-04-21 04:48:00,
2013-04-20 21:53:00,45.3,29.2,30.24,SSE,147,0.0,0.0,53,0.00,,SCT,0.00,VWS V14.01,2013-04-21 04:53:00,
2013-04-20 21:58:00,45.1,29.0,30.24,ESE,113,0.0,0.0,53,0.00,,SCT,0.00,VWS V14.01,2013-04-21 04:58:00,
2013-04-20 22:00:00,45.1,29.0,30.24,ESE,110,0.0,0.0,53,0.00,,SCT,0.00,VWS V14.01,2013-04-21 05:00:00,
2013-04-20 22:03:00,45.3,29.2,30.24,SE,146,0.0,3.6,53,0.00,,SCT,0.00,VWS V14.01,2013-04-21 05:03:00,
2013-04-20 22:08:00,44.8,28.7,30.24,SSE,167,2.7,5.8,53,0.00,,SCT,0.00,VWS V14.01,2013-04-21 05:08:00,
2013-04-20 22:13:00,44.1,28.9,30.24,SE,145,3.1,5.8,55,0.00,,SCT,0.00,VWS V14.01,2013-04-21 05:13:00,
2013-04-20 22:15:00,43.7,29.0,30.24,SSE,159,5.8,5.8,56,0.00,,SCT,0.00,VWS V14.01,2013-04-21 05:15:00,
2013-04-20 22:18:00,43.5,29.3,30.24,SSW,195,3.1,6.3,57,0.00,,SCT,0.00,VWS V14.01,2013-04-21 05:18:00,
2013-04-20 22:23:00,43.0,29.6,30.24,South,186,6.3,6.3,59,0.00,,SCT,0.00,VWS V14.01,2013-04-21 05:23:00,
2013-04-20 22:28:00,42.4,30.0,30.24,SE,125,4.0,6.3,61,0.00,,SCT,0.00,VWS V14.01,2013-04-21 05:28:00,
2013-04-20 22:30:00,42.3,29.8,30.24,SSW,198,5.8,6.3,61,0.00,,SCT,0.00,VWS V14.01,2013-04-21 05:30:00,
2013-04-20 22:33:00,42.1,30.0,30.24,SE,139,0.0,5.8,62,0.00,,SCT,0.00,VWS V14.01,2013-04-21 05:33:00,
2013-04-20 22:38:00,41.9,30.2,30.24,South,174,4.9,6.3,63,0.00,,SCT,0.00,VWS V14.01,2013-04-21 05:38:00,
2013-04-20 22:43:00,41.5,30.3,30.24,SSE,162,3.1,7.6,64,0.00,,SCT,0.00,VWS V14.01,2013-04-21 05:43:00,
2013-04-20 22:45:00,41.5,30.3,30.24,SSE,164,7.6,7.6,64,0.00,,SCT,0.00,VWS V14.01,2013-04-21 05:45:00,
2013-04-20 22:48:00,41.4,30.1,30.24,SE,138,4.9,7.6,64,0.00,,SCT,0.00,VWS V14.01,2013-04-21 05:48:00,
2013-04-20 22:53:00,41.2,30.3,30.24,SE,145,5.4,7.6,65,0.00,,SCT,0.00,VWS V14.01,2013-04-21 05:53:00,
2013-04-20 22:58:00,41.0,30.5,30.24,South,191,6.3,10.1,66,0.00,,SCT,0.00,VWS V14.01,2013-04-21 05:58:00,
2013-04-20 23:00:00,41.0,30.5,30.24,South,171,5.8,10.1,66,0.00,,SCT,0.00,VWS V14.01,2013-04-21 06:00:00,
2013-04-20 23:03:00,41.0,30.9,30.24,SE,144,3.1,7.6,67,0.00,,SCT,0.00,VWS V14.01,2013-04-21 06:03:00,
2013-04-20 23:09:00,40.8,30.7,30.24,SSW,193,4.0,9.6,67,0.00,,SCT,0.00,VWS V14.01,2013-04-21 06:09:00,
2013-04-20 23:14:00,40.6,30.5,30.24,SSE,147,2.7,9.6,67,0.00,,SCT,0.00,VWS V14.01,2013-04-21 06:14:00,
2013-04-20 23:15:00,40.6,30.9,30.24,SSE,153,4.0,9.6,68,0.00,,SCT,0.00,VWS V14.01,2013-04-21 06:15:00,
2013-04-20 23:19:00,40.6,30.9,30.24,South,179,4.5,8.1,68,0.00,,SCT,0.00,VWS V14.01,2013-04-21 06:19:00,
2013-04-20 23:24:00,40.5,30.8,30.24,SSW,195,4.0,8.1,68,0.00,,SCT,0.00,VWS V14.01,2013-04-21 06:24:00,
2013-04-20 23:29:00,40.3,30.9,30.24,ESE,112,6.3,8.1,69,0.00,,SCT,0.00,VWS V14.01,2013-04-21 06:29:00,
2013-04-20 23:30:00,40.3,30.9,30.24,SE,146,5.8,8.1,69,0.00,,SCT,0.00,VWS V14.01,2013-04-21 06:30:00,
2013-04-20 23:34:00,40.3,30.9,30.24,SSW,204,5.4,6.3,69,0.00,,SCT,0.00,VWS V14.01,2013-04-21 06:34:00,
2013-04-20 23:39:00,40.1,31.1,30.24,SSE,156,3.1,7.6,70,0.00,,SCT,0.00,VWS V14.01,2013-04-21 06:39:00,
2013-04-20 23:44:00,39.9,30.9,30.24,SSE,153,2.2,7.6,70,0.00,,SCT,0.00,VWS V14.01,2013-04-21 06:44:00,
2013-04-20 23:45:00,39.9,30.9,30.24,SSE,155,2.7,7.6,70,0.00,,SCT,0.00,VWS V14.01,2013-04-21 06:45:00,
2013-04-20 23:49:00,39.9,30.9,30.24,SSW,201,0.0,5.8,70,0.00,,SCT,0.00,VWS V14.01,2013-04-21 06:49:00,
2013-04-20 23:54:00,39.7,30.8,30.24,SSW,195,0.0,5.8,70,0.00,,SCT,0.00,VWS V14.01,2013-04-21 06:54:00,
2013-04-20 23:59:00,39.7,31.1,30.24,SW,215,3.6,6.3,71,0.00,,SCT,0.00,VWS V14.01,2013-04-21 06:59:00,